User: anonymous   Login
Location: Kosice
(0.0000°N, 21.2500°E)
Time: 04:54:13
(UTC+02:00)
Language:

Cosmos 1680 Rocket - Orbit

View from above orbital plane
View from above orbital plane
View from above satellite
View from above satellite

Ground track
Ground track

The orbit data is extracted from the following two-line orbital elements,

1 16012U 85079B   21102.43944150 -.00000066  00000-0 -13491-4 0  9991
2 16012  74.0563  95.9240 0014669   6.2889 353.8445 14.36364685863910
Epoch (UTC): 12 April 2021 10:32:47
Eccentricity: 0.0014669
inclination: 74.0563°
perigee height: 760 km
apogee height: 781 km
right ascension of ascending node: 95.9240°
argument of perigee: 6.2889°
revolutions per day: 14.36364685
mean anomaly at epoch: 353.8445°
orbit number at epoch: 86391

The dashed part of the orbit path shows where the satellite is in the earth's shadow,  

DLR